Time,TemperatureF,DewpointF,PressureIn,WindDirection,WindDirectionDegrees,WindSpeedMPH,WindSpeedGustMPH,Humidity,HourlyPrecipIn,Conditions,Clouds,dailyrainin,SoftwareType,DateUTC
2016-07-27 00:14:00,78.0,75.0,30.03,SW,215,-999.9,-999.0,90,-99.99,,,-99.99,,2016-07-27 05:14:00,
2016-07-27 00:22:00,78.0,75.0,30.03,SW,215,0.0,-999.0,90,-99.99,,,-99.99,,2016-07-27 05:22:00,
2016-07-27 00:34:00,77.0,74.0,30.02,SSW,201,0.0,-999.0,91,-99.99,,,-99.99,,2016-07-27 05:34:00,
2016-07-27 01:02:00,77.0,74.0,30.02,SSW,211,0.0,-999.0,91,-99.99,,,-99.99,,2016-07-27 06:02:00,
2016-07-27 01:12:00,77.0,74.0,30.02,SSW,203,-999.9,-999.0,90,-99.99,,,-99.99,,2016-07-27 06:12:00,
2016-07-27 01:22:00,77.0,74.0,30.02,SSW,203,0.0,-999.0,90,-99.99,,,-99.99,,2016-07-27 06:22:00,
2016-07-27 01:35:00,77.0,74.0,30.01,WSW,248,0.0,3.0,89,-99.99,,,-99.99,,2016-07-27 06:35:00,
2016-07-27 01:45:00,77.0,74.0,30.01,WSW,248,0.0,3.0,89,-99.99,,,-99.99,,2016-07-27 06:45:00,
2016-07-27 02:07:00,77.0,74.0,30.01,ESE,106,0.0,0.0,90,-99.99,,,-99.99,,2016-07-27 07:07:00,
2016-07-27 02:25:00,76.0,74.0,30.00,ESE,109,0.0,0.0,92,-99.99,,,-99.99,,2016-07-27 07:25:00,
2016-07-27 02:37:00,76.0,74.0,29.99,ESE,109,0.0,1.0,93,-99.99,,,-99.99,,2016-07-27 07:37:00,
2016-07-27 02:45:00,76.0,74.0,29.99,ESE,109,0.0,1.0,93,-99.99,,,-99.99,,2016-07-27 07:45:00,
2016-07-27 02:54:00,75.0,73.0,29.99,ESE,109,0.0,1.0,94,-99.99,,,-99.99,,2016-07-27 07:54:00,
2016-07-27 03:04:00,75.0,73.0,29.99,ESE,109,0.0,0.0,94,-99.99,,,-99.99,,2016-07-27 08:04:00,
2016-07-27 03:13:00,75.0,73.0,29.99,ESE,109,0.0,0.0,94,-99.99,,,-99.99,,2016-07-27 08:13:00,
2016-07-27 03:23:00,75.0,73.0,29.98,ESE,109,0.0,1.0,95,-99.99,,,-99.99,,2016-07-27 08:23:00,
2016-07-27 03:35:00,74.0,72.0,29.98,ESE,108,0.0,0.0,95,-99.99,,,-99.99,,2016-07-27 08:35:00,
2016-07-27 03:44:00,74.0,72.0,29.98,ESE,108,0.0,0.0,95,-99.99,,,-99.99,,2016-07-27 08:44:00,
2016-07-27 03:55:00,74.0,73.0,29.98,ESE,108,0.0,0.0,96,-99.99,,,-99.99,,2016-07-27 08:55:00,
2016-07-27 04:03:00,74.0,73.0,29.98,ESE,108,0.0,0.0,96,-99.99,,,-99.99,,2016-07-27 09:03:00,
2016-07-27 04:13:00,74.0,73.0,29.98,ESE,108,0.0,0.0,96,-99.99,,,-99.99,,2016-07-27 09:13:00,
2016-07-27 04:23:00,74.0,73.0,29.98,ESE,108,0.0,0.0,96,-99.99,,,-99.99,,2016-07-27 09:23:00,
2016-07-27 05:01:00,74.0,73.0,29.99,ESE,108,0.0,-999.0,97,-99.99,,,-99.99,,2016-07-27 10:01:00,
2016-07-27 05:11:00,73.0,72.0,29.99,ESE,108,-999.9,-999.0,97,-99.99,,,-99.99,,2016-07-27 10:11:00,
2016-07-27 05:20:00,73.0,72.0,29.99,ESE,108,0.0,-999.0,97,-99.99,,,-99.99,,2016-07-27 10:20:00,
2016-07-27 05:31:00,73.0,72.0,29.99,ESE,108,0.0,-999.0,97,-99.99,,,-99.99,,2016-07-27 10:31:00,
2016-07-27 05:40:00,73.0,72.0,30.00,ESE,108,-999.9,-999.0,97,-99.99,,,-99.99,,2016-07-27 10:40:00,
2016-07-27 05:51:00,73.0,72.0,30.00,ESE,108,0.0,-999.0,97,-99.99,,,-99.99,,2016-07-27 10:51:00,
2016-07-27 06:03:00,73.0,72.0,30.00,ESE,108,0.0,-999.0,97,-99.99,,,-99.99,,2016-07-27 11:03:00,
2016-07-27 06:12:00,73.0,72.0,30.00,ESE,108,-999.9,-999.0,97,-99.99,,,-99.99,,2016-07-27 11:12:00,
2016-07-27 06:22:00,73.0,72.0,30.00,ESE,108,0.0,-999.0,97,-99.99,,,-99.99,,2016-07-27 11:22:00,
2016-07-27 06:32:00,73.0,72.0,30.01,ESE,108,0.0,-999.0,97,-99.99,,,-99.99,,2016-07-27 11:32:00,
2016-07-27 06:42:00,73.0,72.0,30.01,ESE,108,-999.9,-999.0,97,-99.99,,,-99.99,,2016-07-27 11:42:00,
2016-07-27 06:48:00,73.0,72.0,30.02,ESE,108,0.0,-999.0,97,-99.99,,,-99.99,,2016-07-27 11:48:00,
2016-07-27 07:12:00,73.0,72.0,30.02,ESE,108,0.0,-999.0,98,-99.99,,,-99.99,,2016-07-27 12:12:00,
2016-07-27 07:27:00,74.0,73.0,30.02,ESE,108,0.0,0.0,98,-99.99,,,-99.99,,2016-07-27 12:27:00,
2016-07-27 07:39:00,75.0,74.0,30.03,ESE,108,0.0,0.0,98,-99.99,,,-99.99,,2016-07-27 12:39:00,
2016-07-27 07:48:00,76.0,75.0,30.03,ESE,108,0.0,-999.0,98,-99.99,,,-99.99,,2016-07-27 12:48:00,
2016-07-27 08:03:00,76.0,75.0,30.03,ESE,108,0.0,0.0,98,-99.99,,,-99.99,,2016-07-27 13:03:00,
2016-07-27 08:09:00,77.0,76.0,30.03,ESE,116,0.0,2.0,98,-99.99,,,-99.99,,2016-07-27 13:09:00,
2016-07-27 08:15:00,77.0,76.0,30.03,ESE,116,0.0,2.0,98,-99.99,,,-99.99,,2016-07-27 13:15:00,
2016-07-27 08:27:00,79.0,78.0,30.03,SW,222,0.0,1.0,97,-99.99,,,-99.99,,2016-07-27 13:27:00,
2016-07-27 08:38:00,81.0,78.0,30.04,WSW,254,0.0,2.0,92,-99.99,,,-99.99,,2016-07-27 13:38:00,
2016-07-27 08:45:00,81.0,78.0,30.04,WSW,254,0.0,2.0,92,-99.99,,,-99.99,,2016-07-27 13:45:00,
2016-07-27 08:56:00,83.0,78.0,30.03,SW,225,0.0,-999.0,85,-99.99,,,-99.99,,2016-07-27 13:56:00,
2016-07-27 09:04:00,85.0,77.0,30.03,WSW,253,1.0,5.0,78,-99.99,,,-99.99,,2016-07-27 14:04:00,
2016-07-27 09:15:00,86.0,77.0,30.04,SW,224,0.0,5.0,74,-99.99,,,-99.99,,2016-07-27 14:15:00,
2016-07-27 09:23:00,86.0,77.0,30.04,SW,224,0.0,-999.0,74,-99.99,,,-99.99,,2016-07-27 14:23:00,
2016-07-27 09:34:00,87.0,76.0,30.05,South,172,2.0,6.0,70,-99.99,,,-99.99,,2016-07-27 14:34:00,
2016-07-27 09:44:00,87.0,76.0,30.05,South,172,2.0,6.0,70,-99.99,,,-99.99,,2016-07-27 14:44:00,
2016-07-27 09:54:00,88.0,77.0,30.05,SSE,153,3.0,9.0,69,-99.99,,,-99.99,,2016-07-27 14:54:00,
2016-07-27 10:04:00,88.0,77.0,30.05,SSE,153,3.0,9.0,69,-99.99,,,-99.99,,2016-07-27 15:04:00,
2016-07-27 10:13:00,89.0,77.0,30.05,SE,129,1.0,7.0,68,-99.99,,,-99.99,,2016-07-27 15:13:00,
2016-07-27 10:23:00,90.0,78.0,30.06,SE,134,2.0,7.0,67,-99.99,,,-99.99,,2016-07-27 15:23:00,
2016-07-27 10:40:00,90.0,78.0,30.06,SE,134,2.0,-999.0,67,-99.99,,,-99.99,,2016-07-27 15:40:00,
2016-07-27 10:50:00,90.0,76.0,30.06,SSW,204,3.0,-999.0,64,-99.99,,,-99.99,,2016-07-27 15:50:00,
2016-07-27 11:03:00,90.0,77.0,30.06,SSE,155,3.0,-999.0,65,-99.99,,,-99.99,,2016-07-27 16:03:00,
2016-07-27 11:11:00,90.0,77.0,30.06,SSE,155,3.0,-999.0,65,-99.99,,,-99.99,,2016-07-27 16:11:00,
2016-07-27 11:28:00,89.0,77.0,30.06,SSW,205,2.0,-999.0,67,-99.99,,,-99.99,,2016-07-27 16:28:00,
2016-07-27 12:15:00,90.0,78.0,30.06,South,172,-999.9,-999.0,69,-99.99,,,-99.99,,2016-07-27 17:15:00,
2016-07-27 12:22:00,90.0,78.0,30.06,South,172,-999.9,-999.0,69,-99.99,,,-99.99,,2016-07-27 17:22:00,
2016-07-27 12:42:00,91.0,78.0,30.06,SSE,151,2.0,-999.0,66,-99.99,,,-99.99,,2016-07-27 17:42:00,
2016-07-27 12:52:00,91.0,80.0,30.06,SSE,161,-999.9,-999.0,70,-99.99,,,-99.99,,2016-07-27 17:52:00,
2016-07-27 13:05:00,91.0,79.0,30.05,ESE,115,1.0,-999.0,68,-99.99,,,-99.99,,2016-07-27 18:05:00,
2016-07-27 13:12:00,91.0,79.0,30.05,ESE,115,1.0,-999.0,68,-99.99,,,-99.99,,2016-07-27 18:12:00,
2016-07-27 13:22:00,91.0,78.0,30.05,SSE,155,3.0,-999.0,66,-99.99,,,-99.99,,2016-07-27 18:22:00,
2016-07-27 13:32:00,91.0,77.0,30.05,South,178,3.0,-999.0,63,-99.99,,,-99.99,,2016-07-27 18:32:00,
2016-07-27 13:42:00,91.0,77.0,30.05,South,178,3.0,-999.0,63,-99.99,,,-99.99,,2016-07-27 18:42:00,
2016-07-27 13:55:00,92.0,77.0,30.06,SSW,210,3.0,10.0,62,-99.99,,,-99.99,,2016-07-27 18:55:00,